Weather History for KLAR - September, 2012

Change the Weather History Date:

Wednesday, September 12, 2012

  Actual Average Record
Temperature  
Mean Temperature 50 °F 55 °F  
Max Temperature 59 °F 70 °F 85 °F (1958)
Min Temperature 41 °F 39 °F 24 °F (1974)
Degree Days  
Heating Degree Days 15 10  
Month to date heating degree days 66 98  
Since 1 July heating degree days 123 270  
Cooling Degree Days 0 0  
Month to date cooling degree days 0 0  
Year to date cooling degree days 211 66  
Moisture  
Dew Point 45 °F    
Average Humidity 79    
Maximum Humidity 96    
Minimum Humidity 62    
Precipitation  
Precipitation 0.01 in 0.03 in 1.07 in (2013)
Month to date precipitation 0.20 0.45  
Year to date precipitation 4.62 8.60  
Sea Level Pressure  
Sea Level Pressure 30.14 in    
Wind  
Wind Speed 10 mph (SE)    
Max Wind Speed 22 mph    
Max Gust Speed 25 mph    
Visibility 10 miles    
Events Rain    
T = Trace of Precipitation, MM = Missing Value Source: NWS Daily Summary

Daily Weather History Graph

Daily Weather History Graph

Search for Another Location

Airport or City:

Trip Planner

Search our weather history database for the weather conditions in past years. The results will help you decide how hot, cold, wet, or windy it might be!

Date:

Astronomy

Sep. 12, 2012 Rise Set
Actual Time 6:40 AM MDT 7:16 PM MDT
Civil Twilight 6:12 AM MDT 7:43 PM MDT
Nautical Twilight 5:39 AM MDT 8:16 PM MDT
Astronomical Twilight 5:06 AM MDT 8:50 PM MDT
Moon 2:58 AM MDT (9/12) 5:06 PM MDT (9/12)
Length of Visible Light 13h 31m
Length of Day
12h 35m
Waning Crescent, 13% of the Moon is Illuminated
Sep 12
Waning Crescent
Sep 15
New
Sep 22
First Quarter
Sep 29
Full
Oct 8
Last Quarter

Hourly Weather History & Observations

Time (MDT) Temp. Windchill Dew Point Humidity Pressure Visibility Wind Dir Wind Speed Gust Speed Precip Events Conditions
12:53 AM 51.1 °F - 46.9 °F 86% 29.87 in 10.0 mi SW 6.9 mph - N/A   Partly Cloudy
1:53 AM 51.1 °F - 48.0 °F 89% 29.90 in 10.0 mi Calm Calm - N/A   Mostly Cloudy
2:53 AM 51.1 °F - 46.9 °F 86% 29.90 in 10.0 mi North 3.5 mph - N/A   Clear
3:53 AM 48.9 °F - 46.9 °F 93% 29.94 in 10.0 mi North 4.6 mph - N/A   Partly Cloudy
4:53 AM 48.0 °F - 45.0 °F 89% 30.01 in 10.0 mi NE 3.5 mph - N/A   Mostly Cloudy
5:53 AM 48.0 °F - 44.1 °F 86% 30.04 in 10.0 mi NNE 3.5 mph - N/A   Overcast
6:53 AM 46.9 °F - 43.0 °F 86% 30.07 in 10.0 mi North 8.1 mph - N/A   Overcast
7:25 AM 46.4 °F 43.5 °F 42.8 °F 87% 30.28 in 10.0 mi NNW 5.8 mph - N/A   Overcast
7:43 AM 46.4 °F 43.5 °F 42.8 °F 87% 30.29 in 10.0 mi NNW 5.8 mph - N/A   Overcast
7:53 AM 46.9 °F - 44.1 °F 90% 30.09 in 10.0 mi NNW 6.9 mph - N/A   Overcast
8:15 AM 46.4 °F 42.9 °F 46.4 °F 100% 30.29 in 10.0 mi North 6.9 mph - N/A   Overcast
8:53 AM 48.9 °F - 46.9 °F 93% 30.09 in 10.0 mi Calm Calm - N/A   Overcast
9:53 AM 51.1 °F - 48.0 °F 89% 30.09 in 10.0 mi ENE 3.5 mph - N/A   Overcast
10:29 AM 51.8 °F - 46.4 °F 82% 30.32 in 10.0 mi East 6.9 mph - N/A   Overcast
10:44 AM 51.8 °F - 46.4 °F 82% 30.32 in 10.0 mi Calm Calm - N/A   Overcast
10:53 AM 51.1 °F - 46.0 °F 83% 30.12 in 10.0 mi Calm Calm - N/A   Overcast
11:40 AM 51.8 °F - 46.4 °F 82% 30.33 in 10.0 mi SSE 9.2 mph - N/A   Overcast
11:53 AM 53.1 °F - 46.0 °F 77% 30.11 in 10.0 mi SSE 15.0 mph 20.7 mph N/A   Overcast
12:15 PM 53.6 °F - 46.4 °F 77% 30.32 in 10.0 mi SSE 16.1 mph - N/A   Scattered Clouds
12:53 PM 55.0 °F - 46.0 °F 72% 30.09 in 10.0 mi SSE 17.3 mph - N/A   Partly Cloudy
1:53 PM 57.0 °F - 45.0 °F 64% 30.07 in 10.0 mi SSE 18.4 mph - N/A   Clear
2:53 PM 55.9 °F - 46.0 °F 69% 30.06 in 10.0 mi SSE 19.6 mph - N/A   Clear
3:53 PM 55.9 °F - 45.0 °F 67% 30.07 in 10.0 mi SSE 19.6 mph - N/A   Clear
4:53 PM 55.0 °F - 45.0 °F 69% 30.08 in 10.0 mi SSE 19.6 mph - N/A   Clear
5:53 PM 51.1 °F - 46.0 °F 83% 30.12 in 10.0 mi SSE 17.3 mph - 0.00 in Rain Light Rain
6:53 PM 48.9 °F - 45.0 °F 86% 30.16 in 10.0 mi SSE 15.0 mph - 0.01 in   Partly Cloudy
7:53 PM 46.9 °F - 44.1 °F 90% 30.21 in 10.0 mi SE 10.4 mph - N/A   Clear
8:53 PM 46.0 °F 41.4 °F 44.1 °F 93% 30.24 in 10.0 mi SSE 9.2 mph - N/A   Clear
9:53 PM 45.0 °F 39.7 °F 43.0 °F 93% 30.25 in 10.0 mi SSE 10.4 mph - N/A   Clear
10:53 PM 44.1 °F 38.6 °F 43.0 °F 96% 30.27 in 10.0 mi South 10.4 mph - N/A   Clear
11:53 PM 43.0 °F 38.8 °F 41.0 °F 93% 30.28 in 10.0 mi South 6.9 mph - N/A   Clear